Regional Weather Roundup
Issued by NWS

Home | Current Version | Previous Version | Text Only | Print | Product List | Glossary On
Versions: 1 2 3 4 5 6 7 8 9 10 11 12 13 14 15 16 17 18 19 20 21 22 23 24 25 26 27 28 29 30 31 32 33 34 35 36 37 38 39 40 41 42 43 44 45 46 47 48 49 50
000
ASUS42 KKEY 221810
RWRKEY

FLORIDA REGIONAL WEATHER ROUNDUP FOR THE FLORIDA KEYS
NATIONAL WEATHER SERVICE KEY WEST FLORIDA
200 PM EDT TUE JUL 22 2014

...SOUTH FLORIDA AND THE KEYS...

CITY           SKY/WX    TMP DP  RH WIND       PRES   REMARKS
FORT MYERS     TSTM      74  71  91 SW7       30.06F FOG
SW REGIONAL AP RAIN      73  69  87 W7        30.07F FOG
NAPLES         LGT RAIN  78  78 100 S15       30.09R
MIAMI          CLOUDY    85  75  72 VRB5      30.06F HX  93
WEST KENDALL   CLOUDY    84  75  74 CALM      30.06F HX  92
HOMESTEAD      MOSUNNY   81  73  78 VRB5      30.07R
MARATHON       CLOUDY    87  75  67 CALM      30.05F HX  96
BOCA CHICA NAS CLOUDY    84  73  69 CALM      30.05F HX  90
KEY WEST INTL  CLOUDY    85  73  67 N3        30.05F HX  91

...INTERNATIONAL WEATHER...

CITY           SKY/WX    TMP DP  RH WIND       PRES   REMARKS
NASSAU BAHAMAS NOT AVBL
CANCUN MEXICO  PTSUNNY   90  75  62 E12       30.04F HX 100
COZUMEL MEXICO PTSUNNY   86  75  70 E14       30.04S HX  95

ADJACENT COASTAL WATERS...

STATION/POSITION TIME  SKY/WX   TEMP    WIND        PRES    WAVE
                                AIR SEA DIR/SP/G            HT/PER
                 (UTC)          (F)     (DEG/KT/KT) (MB)    (FT/S)
PULASKI SHOAL LI 1800            85      CALM  /  1 1017.8F
SAND KEY         1800            81      70/  3/  4 1017.7F
SOMBRERO KEY     1800            79      CALM  /  2 1018.3F
LONG KEY         1700            83 87  180/  3/  3 1019.3R
MOLASSES REEF    1800            81 86  280/  2/  3 1018.1F
FOWEY ROCKS      1800            84 86  220/ 13/ 15 1018.1F
Buoy 42080       NOT AVBL

$$


USA.gov is the U.S. government's official web portal to all federal, state and local government web resources and services.